Total_Precipitation_Accumulation
1.10 1.11 1.22 1.39 1.48 1.53 1.66 1.63 1.53 1.49 1.49 1.41 1.35 1.35 1.33 1.28 1.37 1.57 1.70 1.88 2.01 2.06 2.03 2.06 2.06 2.12 2.14 2.01 2.07 2.16 2.32 2.49 2.22 1.79 1.86 2.01 1.99 1.80 1.63 1.51 1.41 1.37 1.31
1.06 1.14 1.20 1.31 1.38 1.41 1.45 1.52 1.57 1.53 1.56 1.52 1.46 1.40 1.27 1.24 1.36 1.50 1.66 1.82 1.96 2.07 2.16 2.22 2.04 2.09 2.20 2.13 2.12 2.15 2.23 2.47 2.39 2.26 2.24 2.31 2.24 2.02 1.79 1.55 1.26 1.14 1.20
1.15 1.16 1.12 1.18 1.17 1.21 1.28 1.34 1.44 1.50 1.55 1.60 1.60 1.51 1.46 1.49 1.59 1.64 1.69 1.83 1.96 2.04 2.13 2.11 2.05 2.16 2.07 2.10 2.16 2.14 2.13 2.17 2.29 2.27 2.19 2.28 2.23 2.00 1.79 1.53 1.31 1.31 1.21
1.00 1.02 1.04 1.05 1.09 1.18 1.27 1.31 1.33 1.32 1.40 1.44 1.43 1.50 1.54 1.60 1.64 1.65 1.64 1.68 1.76 1.84 1.83 1.74 1.67 1.73 1.80 1.94 1.94 1.94 2.01 2.08 2.17 2.13 2.12 2.20 2.21 2.22 2.05 1.76 1.57 1.44 1.33
1.06 1.03 1.04 1.08 1.09 1.13 1.16 1.17 1.19 1.26 1.27 1.42 1.45 1.54 1.61 1.60 1.52 1.56 1.58 1.51 1.68 1.66 1.53 1.48 1.48 1.57 1.60 1.67 1.60 1.67 1.80 1.88 1.96 2.07 2.15 2.31 2.33 2.43 2.27 2.00 1.83 1.68 1.48
1.03 1.12 1.16 1.15 1.08 1.12 1.13 1.10 1.13 1.25 1.34 1.43 1.47 1.58 1.62 1.49 1.53 1.58 1.60 1.60 1.65 1.61 1.54 1.48 1.38 1.38 1.36 1.39 1.44 1.48 1.60 1.72 1.89 2.06 2.12 2.20 2.27 2.24 2.19 2.06 1.95 1.76 1.49
1.09 1.08 1.20 1.28 1.19 1.25 1.28 1.24 1.24 1.29 1.39 1.46 1.57 1.61 1.60 1.66 1.59 1.48 1.51 1.49 1.56 1.60 1.62 1.61 1.37 1.20 1.28 1.27 1.40 1.37 1.33 1.38 1.48 1.63 1.74 1.87 2.06 2.16 2.25 2.16 2.14 2.02 1.75
1.08 1.13 1.33 1.48 1.39 1.39 1.40 1.40 1.44 1.48 1.51 1.62 1.66 1.58 1.59 1.64 1.57 1.34 1.28 1.20 1.31 1.43 1.52 1.56 1.55 1.46 1.43 1.43 1.49 1.47 1.38 1.34 1.40 1.41 1.49 1.69 2.02 2.27 2.30 2.26 2.28 2.19 1.92
1.15 1.27 1.50 1.70 1.73 1.68 1.62 1.68 1.71 1.73 1.76 1.83 1.90 1.87 1.78 1.75 1.57 1.26 1.14 1.11 1.26 1.33 1.39 1.39 1.37 1.29 1.30 1.22 1.25 1.30 1.31 1.27 1.25 1.28 1.31 1.44 1.68 2.02 2.21 2.24 2.32 2.23 2.02
1.28 1.31 1.44 1.66 1.73 1.71 1.70 1.84 1.98 2.02 2.01 2.04 1.95 1.82 1.73 1.72 1.63 1.32 1.15 1.12 1.27 1.35 1.44 1.43 1.39 1.31 1.26 1.12 1.09 1.15 1.14 1.14 1.19 1.19 1.16 1.15 1.25 1.56 1.87 1.89 1.95 2.06 1.85
1.24 1.26 1.35 1.57 1.88 1.86 1.90 1.97 2.08 2.15 2.19 2.20 2.10 1.99 1.87 1.82 1.78 1.45 1.28 1.23 1.32 1.38 1.33 1.34 1.32 1.28 1.08 0.97 0.96 1.01 1.02 1.02 1.12 1.18 1.20 1.22 1.27 1.37 1.51 1.59 1.67 1.75 1.72
1.29 1.32 1.40 1.65 1.75 1.83 1.98 2.04 2.18 2.29 2.29 2.26 2.26 2.12 2.05 1.96 1.71 1.43 1.24 1.23 1.33 1.44 1.44 1.40 1.36 1.22 0.98 0.86 0.76 0.74 0.77 0.78 0.85 0.99 1.05 1.08 1.13 1.18 1.29 1.45 1.62 1.69 1.67
1.26 1.28 1.37 1.51 1.59 1.74 1.82 1.80 1.86 1.97 1.99 2.02 2.06 2.03 2.03 2.11 1.98 1.55 1.25 1.18 1.26 1.37 1.52 1.59 1.39 1.21 1.06 0.92 0.86 0.77 0.69 0.66 0.76 0.85 0.91 0.92 0.97 1.05 1.21 1.43 1.63 1.82 1.77
1.22 1.18 1.26 1.43 1.52 1.62 1.73 1.70 1.77 1.83 1.88 1.96 1.98 1.94 1.95 2.09 2.09 1.77 1.44 1.25 1.17 1.16 1.22 1.25 1.17 1.11 1.00 0.89 0.80 0.72 0.63 0.67 0.74 0.77 0.84 0.92 1.02 1.19 1.27 1.29 1.39 1.60 1.77
1.24 1.18 1.25 1.36 1.47 1.54 1.63 1.70 1.72 1.74 1.72 1.75 1.77 1.73 1.74 1.85 1.84 1.61 1.40 1.26 1.16 1.15 1.17 1.23 1.21 1.20 1.09 1.00 0.92 0.87 0.86 0.87 0.84 0.84 0.91 1.00 1.05 1.12 1.21 1.28 1.35 1.39 1.43
1.30 1.21 1.18 1.18 1.28 1.35 1.42 1.42 1.35 1.32 1.30 1.28 1.30 1.23 1.21 1.37 1.37 1.14 1.01 1.04 1.05 1.02 1.05 1.13 1.21 1.25 1.20 1.12 1.07 1.02 1.02 1.00 0.95 0.96 1.00 1.05 1.09 1.12 1.18 1.32 1.44 1.44 1.33
1.47 1.31 1.17 1.11 1.13 1.18 1.29 1.36 1.39 1.28 1.19 1.11 1.07 0.96 0.89 1.11 1.18 1.03 0.90 0.86 0.84 0.85 0.91 1.00 1.04 1.13 1.17 1.08 0.99 0.93 0.92 0.94 1.00 1.03 1.03 1.06 1.12 1.16 1.21 1.30 1.42 1.49 1.40
1.39 1.30 1.14 1.07 1.06 1.04 1.10 1.19 1.27 1.32 1.29 1.12 0.96 0.85 0.76 0.88 1.00 0.95 0.85 0.75 0.74 0.75 0.80 0.90 0.97 1.02 1.09 1.05 0.97 0.96 0.99 1.04 1.04 1.04 1.05 1.07 1.12 1.17 1.22 1.27 1.33 1.39 1.39
1.26 1.17 1.06 1.03 1.04 0.97 0.91 0.98 1.05 1.12 1.21 1.17 0.99 0.90 0.81 0.86 0.93 0.90 0.78 0.68 0.71 0.72 0.74 0.80 0.87 0.94 0.97 0.96 0.96 0.99 1.00 1.03 0.98 0.99 1.04 1.09 1.07 1.12 1.13 1.18 1.27 1.36 1.38
1.02 0.94 0.90 0.92 0.92 0.88 0.87 0.90 0.99 1.08 1.16 1.15 1.03 0.90 0.78 0.80 0.87 0.87 0.76 0.70 0.70 0.67 0.66 0.72 0.80 0.85 0.90 0.92 0.99 1.03 1.00 1.04 1.06 1.01 1.04 1.11 1.06 1.06 1.06 1.08 1.19 1.25 1.25
0.87 0.75 0.66 0.69 0.77 0.81 0.86 0.93 1.03 1.11 1.13 1.05 0.90 0.75 0.65 0.62 0.72 0.74 0.76 0.78 0.75 0.74 0.74 0.72 0.75 0.81 0.84 0.91 0.99 1.04 1.05 1.07 1.09 1.04 1.03 1.11 1.10 1.11 1.14 1.11 1.13 1.24 1.25
0.86 0.72 0.59 0.58 0.64 0.68 0.79 0.91 0.99 1.00 0.95 0.89 0.80 0.70 0.65 0.62 0.67 0.70 0.75 0.75 0.71 0.70 0.67 0.67 0.70 0.77 0.81 0.86 0.92 0.98 1.01 1.01 1.04 1.07 1.07 1.11 1.13 1.11 1.14 1.13 1.11 1.21 1.30
0.81 0.63 0.49 0.46 0.49 0.54 0.66 0.83 0.89 0.83 0.75 0.72 0.71 0.69 0.69 0.70 0.68 0.70 0.73 0.71 0.69 0.66 0.63 0.67 0.71 0.75 0.81 0.82 0.81 0.87 0.91 0.92 0.91 0.97 1.07 1.08 1.11 1.13 1.15 1.17 1.17 1.20 1.29
0.71 0.54 0.41 0.36 0.39 0.48 0.62 0.78 0.79 0.70 0.66 0.68 0.68 0.70 0.70 0.69 0.68 0.69 0.71 0.72 0.71 0.69 0.66 0.67 0.67 0.65 0.69 0.75 0.74 0.70 0.71 0.69 0.69 0.78 0.90 1.01 1.05 1.14 1.14 1.15 1.19 1.17 1.26
0.61 0.50 0.39 0.33 0.37 0.50 0.68 0.78 0.71 0.64 0.62 0.63 0.61 0.65 0.69 0.71 0.72 0.72 0.71 0.73 0.73 0.74 0.73 0.68 0.67 0.64 0.59 0.59 0.61 0.59 0.57 0.50 0.49 0.59 0.71 0.84 0.90 1.00 1.06 1.06 1.15 1.18 1.20
0.58 0.54 0.47 0.41 0.45 0.57 0.69 0.73 0.67 0.63 0.66 0.63 0.61 0.64 0.69 0.72 0.71 0.69 0.70 0.70 0.70 0.68 0.62 0.58 0.57 0.57 0.55 0.53 0.48 0.44 0.39 0.37 0.40 0.47 0.56 0.69 0.80 0.89 0.96 1.00 1.05 1.14 1.14